Location: Gull Harbor
(47.1000°N, 122.9000°W)
Time: 14:38:03
(UTC-07:00)

ISS - Visible Passes

Search period start: 25 March 2017 00:00
Search period end: 04 April 2017 00:00
Orbit: 399 x 409 km, 51.6° (Epoch: 26 March)

Date Brightness Start Highest point End Pass type
(mag) Time Alt. Az. Time Alt. Az. Time Alt. Az.
26 Mar -1.4 21:23:26 10° SSW 21:23:53 13° SSW 21:23:53 13° SSW visible
27 Mar -2.2 20:31:53 10° S 20:34:08 17° SE 20:34:46 17° ESE visible
27 Mar -1.1 22:06:58 10° WSW 22:07:29 14° WSW 22:07:29 14° WSW visible
28 Mar -3.9 21:14:40 10° SW 21:17:52 59° SSE 21:18:05 57° SE visible
29 Mar -3.1 20:22:34 10° SSW 20:25:34 35° SE 20:28:27 11° ENE visible
29 Mar -2.5 21:58:45 10° W 22:01:08 40° WNW 22:01:08 40° WNW visible
30 Mar -3.7 21:06:15 10° WSW 21:09:30 76° NNW 21:11:16 25° ENE visible
30 Mar -0.7 22:43:13 10° WNW 22:43:57 15° WNW 22:43:57 15° WNW visible
31 Mar -3.8 20:13:51 10° SW 20:17:05 70° SSE 20:20:21 10° ENE visible
31 Mar -2.7 21:50:36 10° W 21:53:43 39° N 21:53:54 39° N visible
01 Apr -3.0 20:57:59 10° W 21:01:11 48° NNW 21:03:45 15° ENE visible
01 Apr -1.2 22:35:00 10° WNW 22:36:24 21° NW 22:36:24 21° NW visible
02 Apr -2.5 21:42:25 10° WNW 21:45:29 35° N 21:46:08 31° NNE visible
03 Apr -2.6 20:49:47 10° WNW 20:52:52 37° N 20:55:48 11° ENE visible
03 Apr -1.7 22:26:37 10° WNW 22:28:27 27° NW 22:28:27 27° NW visible
